Regional Weather Roundup
Issued by NWS

Home | Current Version | Previous Version | Text Only | Print | Product List | Glossary On
Versions: 1 2 3 4 5 6 7 8 9 10 11 12 13 14 15 16 17 18 19 20 21 22 23 24 25 26 27 28 29 30 31 32 33 34 35 36 37 38 39 40 41 42 43 44 45 46 47 48 49 50
000
ASUS43 KIND 250209
RWRIN

WEATHER ROUNDUP FOR INDIANA
NATIONAL WEATHER SERVICE INDIANAPOLIS IN
1000 PM EDT THU JUL 24 2014

NOTE: "FAIR" INDICATES FEW OR NO CLOUDS BELOW 12,000 FEET WITH NO
SIGNIFICANT WEATHER AND/OR OBSTRUCTIONS TO VISIBILITY.

* - STATION DOES NOT REPORT WEATHER SUCH AS PRECIPITATION OR FOG.

+ - STATION NOT QUALITY CONTROLLED BY THE NATIONAL WEATHER SERVICE.
    USE DATA WITH CAUTION...ESPECIALLY DEWPOINT AND RELATIVE
    HUMIDITY OBSERVATIONS.

INZ001>003-010>013-019-020-250300-
NORTHWEST INDIANA

CITY           SKY/WX    TMP DP  RH WIND       PRES   REMARKS
GARY /AIRPORT/ PTCLDY    59  55  88 CALM      30.10F
KNOX *+        CLEAR     59  54  84 N6        30.09R
LA PORTE +     CLEAR     58  51  77 NW5       30.11R
MICHIGAN CITY+ CLEAR     55  50  82 CALM      30.11R
MONTICELLO +   MOCLDY    62  58  86 W3        30.08R
RENSSELAER +   PTCLDY    63  59  88 N6        30.09S
VALPARAISO     CLEAR     59  51  75 N3        30.11R

$$

LMZ046-743>745-250300-
SOUTHERN LAKE MICHIGAN

STATION/POSITION TIME  TEMP WIND        PRES
                       AIR  DIR/SP/G
                 (UTC) (F)  (DEG/KT/KT) (MB)
MICHIGAN CITY    0200   65  360/  6/  7   N/A

$$

INZ004-005-014>016-021>024-250300-
NORTH CENTRAL INDIANA

CITY           SKY/WX    TMP DP  RH WIND       PRES   REMARKS
GOSHEN         CLEAR     63  55  75 N7        30.08R
LOGANSPORT +   CLEAR     63  52  67 CALM      30.09R
PERU/GRISSOM   CLEAR     66  55  65 NW3       30.07S
ROCHESTER +    CLEAR     64  55  72 NW5       30.08S
SOUTH BEND     CLEAR     60  51  72 NW6       30.10R
WARSAW +       CLEAR     61  54  77 NW3       30.08S

$$

INZ006>009-017-018-025>027-250300-
NORTHEAST INDIANA

CITY           SKY/WX    TMP DP  RH WIND       PRES   REMARKS
ANGOLA *+      CLEAR     61  54  77 CALM      30.08R
AUBURN +       CLEAR     63  52  67 CALM      30.08S
FORT WAYNE     MOCLDY    64  57  78 CALM      30.07S
HUNTINGTON +   PTCLDY    68  52  57 CALM      30.06F

$$

INZ028-029-035-036-043>045-051>053-250300-
WEST CENTRAL INDIANA

CITY           SKY/WX    TMP DP  RH WIND       PRES   REMARKS
GREENCASTLE +  CLEAR     63  55  77 CALM      30.09R
LAFAYETTE      PTCLDY    62  55  77 N5        30.08R
TERRE HAUTE    CLEAR     62  57  83 NW3       30.08R

$$

INZ030>032-037>040-046>048-054>057-064-065-250300-
CENTRAL INDIANA

CITY           SKY/WX    TMP DP  RH WIND       PRES   REMARKS
CP ATTERBURY + CLEAR     61  54  77 CALM      30.08R
COLUMBUS       PTCLDY    63  59  88 CALM      30.07S
GREENWOOD *+   CLEAR     68  57  68 CALM      30.08R
INDIANAPOLIS   PTCLDY    69  51  52 N5        30.06S
-EAGLE CREEK   CLEAR     67  53  61 CALM      30.07R
KOKOMO *+      CLEAR     64  55  72 CALM      30.08S
MARION +       PTCLDY    62  57  84 CALM      30.08S
SHELBYVILLE    CLEAR     64  57  78 E3        30.07R
ZIONSVILLE +   CLEAR     63  56  77 CALM      30.09R

$$

INZ033-034-041-042-049-050-058-059-250300-
EAST CENTRAL INDIANA

CITY           SKY/WX    TMP DP  RH WIND       PRES   REMARKS
MUNCIE         CLEAR     61  53  75 SE3       30.08R

$$

INZ060-061-067>069-081>083-085>088-250300-
SOUTHWEST INDIANA

CITY           SKY/WX    TMP DP  RH WIND       PRES   REMARKS
EVANSVILLE     CLEAR     71  57  61 N3        30.05R
HUNTINGBURG *+ CLEAR     66  55  68 E5        30.06R
WASHINGTON +   CLEAR     62  61  96 CALM      30.06R

$$

INZ062-063-066-070>080-084-089>092-250300-
SOUTH CENTRAL AND SOUTHEAST INDIANA

CITY           SKY/WX    TMP DP  RH WIND       PRES   REMARKS
BLOOMINGTON    CLEAR     61  57  87 CALM      30.07S
SEYMOUR +      CLEAR     61  41  48 NE5       30.06

$$



USA.gov is the U.S. government's official web portal to all federal, state and local government web resources and services.